sat.trackr.live / text

‹ back to catalog

STARLINK-31875

NORAD 59674 · 2024-084W

PAYLOAD ACTIVE UNKNOWN

§ Identity

Operator
Country
US
Launch date
2024-05-06
Launch site
AFETR
Launch vehicle
Mass (kg)
RCS (m²)

Purposes: comms

External: N2YO · Heavens-Above · Gunter

§ Orbital elements

Epoch: 2026-05-25T04:28:34.660128Z

Period
94.27 min
Inclination
43.0004°
Eccentricity
0.0001469
Mean motion
15.27587610 rev/d
Perigee alt
482.0 km
Apogee alt
484.0 km
Semi-major
6,861.2 km
B*
8.1750e-5
RAAN
326.2115°
Arg perigee
271.3855°
Mean anomaly
88.6828°
Rev number
11,611

§ Raw data

STARLINK-318751 59674U 24084W   26145.18651227  .00001989  00000+0  81750-4 0  99902 59674  43.0004 326.2115 0001469 271.3855  88.6828 15.27587610116117

JSON: /api/v1/satellites/59674 · /tle

For live sub-satellite position, see the globe view (requires WebGL).

§ Visibility from observer

Set your observer location to see the next 7 days of passes ≥ 10°. The values pass through the URL so the page stays shareable.

No JS? Fill the form by hand. The geolocation button needs JavaScript.